Volver al catálogo

STARLINK-37515

ActivoComunicacionesVLEO
NORAD 69169·PAYLOAD·🇺🇸 United States

Lanzado May 21, 2026 desde Cape Canaveral Space Force Station

Loading…

Próximos Pases (próximas 24 horas)

TLE

ActualizadoSource: CelesTrak SupGP

Época: Sep 15, 2026, 04:29 UTC

1 69169C 26111X   26258.18729167 -.00026595  00000+0 -78590-3 0  2584
2 69169  53.1565  90.4174 0001180  92.3248 318.8527 15.34397977    11

Sigue STARLINK-37515 en tiempo real con AllMySat

Download on the App Store